Clermont County, Batavia, OH

7:14 PM EST on February 16, 2019 (GMT -0500)
Clermont County, Batavia

Weather History for KI69 - February, 2019

Change the Weather History Date:

Monday, February 11, 2019

  Actual Average (KLUK) Record (KLUK)
Temperature  
Mean Temperature 38 °F -  
Max Temperature 42 °F 42 °F 75 °F (1999)
Min Temperature 34 °F 24 °F 1 °F (1981)
Degree Days  
Heating Degree Days 27    
Moisture  
Dew Point 39 °F    
Average Humidity 100    
Maximum Humidity 100    
Minimum Humidity 98    
Precipitation  
Precipitation 0.50 in - - ()
Sea Level Pressure  
Sea Level Pressure 30.08 in    
Wind  
Wind Speed 2 mph (East)    
Max Wind Speed 10 mph    
Max Gust Speed -    
Visibility 4 miles    
Events Fog , Snow    
Averages and records for this station are not official NWS values.
T = Trace of Precipitation, MM = Missing Value Source: NWS Daily Summary

Daily Weather History Graph

Daily Weather History Graph

Search for Another Location

Airport or City:

Astronomy

Feb. 11, 2019 Rise Set
Actual Time 7:33 AM EST 6:09 PM EST
Civil Twilight 7:05 AM EST 6:36 PM EST
Nautical Twilight 6:34 AM EST 7:08 PM EST
Astronomical Twilight 6:03 AM EST 7:39 PM EST
Moon 11:08 AM EST (2/11) No Moon Set
Length of Visible Light 11h 31m
Length of Day
10h 35m
Waxing Crescent, 38% of the Moon is Illuminated
Feb 11
Waxing Crescent
Feb 12
First Quarter
Feb 19
Full
Feb 26
Last Quarter
Mar 6
New

Hourly Weather History & Observations

Time (EST) Temp. Windchill Dew Point Humidity Pressure Visibility Wind Dir Wind Speed Gust Speed Precip Events Conditions
12:15 AM 34.7 °F - 34.7 °F 100% 30.19 in 4.0 mi Calm Calm - N/A   Overcast
12:35 AM 34.7 °F - 34.7 °F 100% 30.19 in 4.0 mi Calm Calm - N/A   Overcast
12:36 AM 34.7 °F - 34.7 °F 100% 30.19 in 4.0 mi Calm Calm - N/A   Overcast
12:55 AM 34.7 °F - 34.7 °F 100% 30.19 in 4.0 mi Calm Calm - N/A   Overcast
12:56 AM 34.7 °F - 34.7 °F 100% 30.19 in 4.0 mi Calm Calm - N/A   Overcast
1:15 AM 34.9 °F - 34.9 °F 100% 30.18 in 3.0 mi Calm Calm - N/A   Overcast
1:35 AM 34.7 °F - 34.7 °F 100% 30.17 in 1.2 mi Calm Calm - N/A   Overcast
1:36 AM 34.7 °F 31.8 °F 34.7 °F 100% 30.17 in 1.2 mi South 3.5 mph - N/A   Overcast
1:55 AM 35.6 °F 32.8 °F 35.6 °F 100% 30.17 in 1.2 mi South 3.5 mph - N/A   Overcast
1:56 AM 35.6 °F - 35.6 °F 100% 30.17 in 1.2 mi Calm Calm - N/A   Overcast
2:15 AM 35.6 °F - 35.6 °F 100% 30.17 in 1.5 mi Calm Calm - N/A   Overcast
2:35 AM 36.0 °F - 36.0 °F 100% 30.17 in 2.0 mi Calm Calm - N/A   Overcast
2:36 AM 36.0 °F - 36.0 °F 100% 30.17 in 2.5 mi Calm Calm - N/A   Overcast
2:55 AM 36.5 °F - 36.5 °F 100% 30.17 in 2.5 mi Calm Calm - N/A   Overcast
2:56 AM 36.5 °F 33.9 °F 36.5 °F 100% 30.17 in 2.5 mi SSW 3.5 mph - N/A   Overcast
3:15 AM 36.5 °F - 36.5 °F 100% 30.18 in 2.5 mi Calm Calm - N/A   Overcast
3:35 AM 36.7 °F - 36.7 °F 100% 30.16 in 2.0 mi Calm Calm - 0.01 in Snow Light Snow
3:36 AM 36.5 °F - 36.5 °F 100% 30.16 in 2.5 mi Calm Calm - 0.01 in Snow Light Snow
3:55 AM 36.5 °F - 36.5 °F 100% 30.16 in 2.5 mi Calm Calm - 0.01 in   Overcast
3:56 AM 36.5 °F - 36.5 °F 100% 30.16 in 2.5 mi Calm Calm - 0.01 in   Overcast
4:15 AM 35.6 °F - 35.6 °F 100% 30.15 in 0.5 mi Calm Calm - N/A Fog Fog
4:36 AM 35.6 °F - 35.6 °F 100% 30.13 in 0.5 mi Calm Calm - N/A Fog Fog
4:55 AM 35.6 °F 32.8 °F 35.6 °F 100% 30.13 in 1.0 mi SE 3.5 mph - 0.01 in   Overcast
4:56 AM 35.6 °F 32.8 °F 35.6 °F 100% 30.12 in 1.0 mi SE 3.5 mph - 0.01 in   Overcast
5:15 AM 36.5 °F - 36.5 °F 100% 30.13 in 1.2 mi Calm Calm - N/A   Overcast
5:35 AM 36.5 °F - 36.5 °F 100% 30.13 in 1.0 mi Calm Calm - N/A Snow Light Snow
5:36 AM 36.5 °F - 36.5 °F 100% 30.13 in 1.0 mi Calm Calm - N/A Snow Light Snow
5:55 AM 36.3 °F - 36.3 °F 100% 30.14 in 0.8 mi Calm Calm - N/A Snow Light Snow
6:15 AM 36.1 °F - 36.1 °F 100% 30.15 in 0.8 mi Calm Calm - 0.01 in Snow Light Snow
6:35 AM 36.3 °F - 36.3 °F 100% 30.14 in 1.2 mi Calm Calm - 0.02 in Snow Light Snow
6:36 AM 36.3 °F - 36.3 °F 100% 30.14 in 1.0 mi Calm Calm - 0.02 in Snow Light Snow
6:55 AM 36.3 °F 33.7 °F 36.3 °F 100% 30.14 in 0.8 mi South 3.5 mph - 0.03 in Snow Light Snow
7:15 AM 36.5 °F - 36.5 °F 100% 30.14 in 0.8 mi Calm Calm - 0.01 in Snow Light Snow
7:35 AM 36.7 °F - 36.7 °F 100% 30.15 in 0.8 mi Calm Calm - 0.02 in Snow Light Snow
7:36 AM 36.7 °F - 36.7 °F 100% 30.15 in 0.8 mi Calm Calm - 0.02 in Snow Light Snow
7:55 AM 36.5 °F - 36.5 °F 100% 30.14 in 0.2 mi Calm Calm - 0.03 in Snow Light Snow
8:15 AM 36.5 °F - 36.5 °F 100% 30.15 in 0.5 mi Calm Calm - 0.01 in Snow Light Snow
8:35 AM 36.5 °F - 36.5 °F 100% 30.16 in 0.2 mi Calm Calm - 0.02 in Snow Light Snow
8:36 AM 36.5 °F - 36.5 °F 100% 30.16 in 0.2 mi Calm Calm - 0.02 in Snow Light Snow
8:55 AM 37.2 °F - 37.2 °F 100% 30.15 in 0.8 mi Calm Calm - 0.03 in Snow Light Snow
9:15 AM 36.9 °F - 36.9 °F 100% 30.15 in 0.2 mi Calm Calm - N/A Fog Fog
9:35 AM 37.4 °F 32.8 °F 37.4 °F 100% 30.14 in 2.0 mi SSE 5.8 mph - 0.01 in Snow Light Snow
9:36 AM 37.4 °F 32.1 °F 37.4 °F 100% 30.14 in 2.0 mi SSE 6.9 mph - 0.01 in Snow Light Snow
9:55 AM 37.8 °F 35.3 °F 37.8 °F 100% 30.14 in 4.0 mi East 3.5 mph - 0.02 in Snow Light Snow
10:16 AM 38.3 °F 33.9 °F 38.3 °F 100% 30.14 in 4.0 mi ESE 5.8 mph - N/A   Unknown
10:35 AM 38.7 °F 35.2 °F 38.7 °F 100% 30.13 in 4.0 mi ESE 4.6 mph - 0.01 in   Overcast
10:36 AM 38.7 °F 35.2 °F 38.7 °F 100% 30.13 in 4.0 mi ESE 4.6 mph - 0.01 in   Overcast
10:55 AM 39.4 °F 37.2 °F 39.4 °F 100% 30.13 in 5.0 mi East 3.5 mph - 0.01 in   Overcast
11:15 AM 39.7 °F - 39.7 °F 100% 30.13 in 3.0 mi Calm Calm - 0.01 in   Unknown
11:16 AM 39.7 °F 37.6 °F 39.7 °F 100% 30.13 in 3.0 mi ENE 3.5 mph - 0.01 in   Unknown
11:35 AM 40.5 °F - 40.5 °F 100% 30.12 in 3.0 mi Calm Calm - 0.01 in   Overcast
11:36 AM 40.5 °F - 40.5 °F 100% 30.12 in 3.0 mi Calm Calm - 0.01 in   Overcast
11:55 AM 40.8 °F 38.8 °F 40.8 °F 100% 30.11 in 4.0 mi NE 3.5 mph - 0.01 in   Overcast
12:15 PM 41.0 °F 38.0 °F 41.0 °F 100% 30.11 in 7.0 mi ENE 4.6 mph - N/A   Overcast
12:16 PM 41.0 °F 38.0 °F 41.0 °F 100% 30.10 in 7.0 mi ENE 4.6 mph - N/A   Overcast
12:35 PM 41.2 °F 39.2 °F 41.2 °F 100% 30.10 in 7.0 mi East 3.5 mph - N/A   Unknown
12:36 PM 41.2 °F 39.2 °F 41.2 °F 100% 30.10 in 7.0 mi East 3.5 mph - N/A   Unknown
12:55 PM 41.4 °F 39.4 °F 41.4 °F 100% 30.09 in 5.0 mi East 3.5 mph - 0.01 in   Unknown
1:15 PM 41.9 °F 40.0 °F 41.9 °F 100% 30.08 in 7.0 mi East 3.5 mph - 0.01 in   Unknown
1:16 PM 41.9 °F 40.0 °F 41.9 °F 100% 30.08 in 5.0 mi East 3.5 mph - 0.01 in   Unknown
1:35 PM 42.1 °F 40.2 °F 41.9 °F 99% 30.07 in 7.0 mi East 3.5 mph - 0.02 in   Unknown
1:36 PM 42.1 °F 40.2 °F 41.9 °F 99% 30.07 in 7.0 mi East 3.5 mph - 0.02 in   Unknown
1:55 PM 42.1 °F 40.2 °F 41.9 °F 99% 30.07 in 5.0 mi ESE 3.5 mph - 0.03 in   Unknown
2:15 PM 42.3 °F 39.4 °F 41.9 °F 99% 30.06 in 5.0 mi ESE 4.6 mph - 0.01 in   Unknown
2:16 PM 42.3 °F 38.6 °F 41.9 °F 99% 30.06 in 5.0 mi ESE 5.8 mph - 0.01 in   Unknown
2:35 PM 42.8 °F 40.1 °F 42.3 °F 98% 30.05 in 10.0 mi East 4.6 mph - 0.03 in   Unknown
2:55 PM 42.8 °F 40.1 °F 42.3 °F 98% 30.05 in 7.0 mi ESE 4.6 mph - 0.04 in   Unknown
3:15 PM 42.8 °F 39.3 °F 42.4 °F 99% 30.04 in 7.0 mi East 5.8 mph - 0.01 in   Unknown
3:16 PM 42.8 °F 39.3 °F 42.4 °F 99% 30.04 in 7.0 mi East 5.8 mph - 0.01 in   Unknown
3:35 PM 42.8 °F 39.3 °F 42.4 °F 99% 30.04 in 7.0 mi East 5.8 mph - 0.03 in   Unknown
3:55 PM 42.8 °F 41.1 °F 42.4 °F 99% 30.03 in 5.0 mi East 3.5 mph - 0.05 in   Unknown
4:15 PM 42.6 °F 39.9 °F 42.4 °F 99% 30.03 in 7.0 mi East 4.6 mph - 0.01 in   Unknown
4:16 PM 42.6 °F 39.0 °F 42.4 °F 99% 30.03 in 7.0 mi East 5.8 mph - 0.01 in   Unknown
4:35 PM 42.4 °F 38.8 °F 42.1 °F 99% 30.02 in 10.0 mi East 5.8 mph - 0.01 in   Unknown
4:55 PM 42.4 °F 38.1 °F 42.1 °F 99% 30.02 in 10.0 mi East 6.9 mph - 0.02 in   Unknown
4:56 PM 42.4 °F 38.1 °F 42.1 °F 99% 30.02 in 7.0 mi East 6.9 mph - 0.02 in   Unknown
5:15 PM 42.4 °F 37.5 °F 42.1 °F 99% 30.01 in 5.0 mi East 8.1 mph - 0.01 in   Unknown
5:16 PM 42.4 °F 37.0 °F 42.1 °F 99% 30.01 in 5.0 mi East 9.2 mph - 0.01 in   Unknown
5:35 PM 42.3 °F 38.6 °F 41.9 °F 99% 30.02 in 7.0 mi ESE 5.8 mph - 0.01 in   Overcast
5:55 PM 42.1 °F 39.2 °F 41.9 °F 99% 30.02 in 5.0 mi ENE 4.6 mph - 0.01 in   Unknown
5:56 PM 42.1 °F 39.2 °F 41.9 °F 99% 30.02 in 5.0 mi East 4.6 mph - 0.02 in   Unknown
6:15 PM 41.9 °F 39.0 °F 41.9 °F 100% 30.01 in 10.0 mi East 4.6 mph - N/A   Overcast
6:16 PM 41.9 °F 39.0 °F 41.9 °F 100% 30.01 in 10.0 mi East 4.6 mph - N/A   Overcast
6:35 PM 41.5 °F 37.8 °F 41.4 °F 99% 30.01 in 7.0 mi East 5.8 mph - N/A   Overcast
6:55 PM 41.4 °F 37.6 °F 41.2 °F 99% 30.01 in 7.0 mi East 5.8 mph - N/A   Overcast
6:56 PM 41.4 °F 37.6 °F 41.2 °F 99% 30.01 in 7.0 mi East 5.8 mph - N/A   Overcast
7:15 PM 41.2 °F 36.6 °F 41.0 °F 99% 30.01 in 10.0 mi East 6.9 mph - N/A   Overcast
7:16 PM 41.2 °F 36.6 °F 41.0 °F 99% 30.01 in 10.0 mi East 6.9 mph - N/A   Overcast
7:35 PM 41.0 °F 35.8 °F 40.6 °F 99% 30.01 in 5.0 mi East 8.1 mph - 0.02 in   Unknown
7:55 PM 41.0 °F 38.0 °F 40.6 °F 99% 30.01 in 5.0 mi East 4.6 mph - 0.03 in   Unknown
7:56 PM 41.0 °F 37.1 °F 40.6 °F 99% 30.01 in 5.0 mi East 5.8 mph - 0.03 in   Unknown
8:15 PM 40.6 °F 36.7 °F 40.5 °F 99% 30.01 in 5.0 mi ENE 5.8 mph - 0.01 in   Unknown
8:16 PM 40.6 °F 37.5 °F 40.5 °F 99% 30.01 in 5.0 mi East 4.6 mph - 0.02 in   Unknown
8:35 PM 40.5 °F 36.5 °F 40.3 °F 99% 29.99 in 5.0 mi East 5.8 mph - 0.03 in   Unknown
8:55 PM 40.5 °F 35.8 °F 40.3 °F 99% 29.98 in 7.0 mi East 6.9 mph - 0.04 in   Unknown
8:56 PM 40.5 °F 36.5 °F 40.3 °F 99% 29.98 in 7.0 mi East 5.8 mph - 0.04 in   Unknown
9:15 PM 40.1 °F 35.3 °F 40.1 °F 100% 29.97 in 7.0 mi East 6.9 mph - 0.01 in   Overcast
9:16 PM 40.1 °F 35.3 °F 40.1 °F 100% 29.97 in 7.0 mi East 6.9 mph - 0.01 in   Overcast
9:35 PM 40.1 °F 34.7 °F 39.7 °F 99% 29.96 in 7.0 mi East 8.1 mph - 0.02 in   Unknown
9:55 PM 40.1 °F 33.6 °F 39.7 °F 99% 29.96 in 5.0 mi East 10.4 mph - 0.03 in   Unknown
9:56 PM 40.1 °F 34.1 °F 39.7 °F 99% 29.96 in 5.0 mi East 9.2 mph - 0.03 in   Unknown
10:15 PM 40.3 °F 34.4 °F 39.9 °F 99% 29.94 in 7.0 mi East 9.2 mph - 0.01 in   Overcast
10:16 PM 40.3 °F 34.4 °F 40.1 °F 99% 29.94 in 7.0 mi East 9.2 mph - 0.01 in   Overcast
10:35 PM 40.3 °F 35.5 °F 40.1 °F 99% 29.93 in 7.0 mi East 6.9 mph - 0.02 in   Unknown
10:55 PM 40.3 °F 36.3 °F 40.1 °F 99% 29.93 in 5.0 mi East 5.8 mph - 0.04 in   Unknown
11:15 PM 40.5 °F 36.5 °F 40.3 °F 99% 29.92 in 5.0 mi East 5.8 mph - 0.02 in   Unknown
11:35 PM 40.5 °F 34.1 °F 40.3 °F 99% 29.90 in 7.0 mi East 10.4 mph - 0.03 in   Unknown
11:36 PM 40.6 °F 34.3 °F 40.3 °F 99% 29.90 in 7.0 mi East 10.4 mph - 0.03 in   Unknown
11:55 PM 41.0 °F 35.8 °F 40.5 °F 98% 29.89 in 5.0 mi East 8.1 mph - 0.04 in   Unknown